Location: Bogis-Bossey
(46.3500°N, 6.1667°E)
Time: 20:02:56
(UTC+00:00)

USA 238 DEB - Pass Details

Date: 01 March 2024
Orbit: 926 x 1285 km, 63.4° (Epoch: 21 April)

Event Time Altitude Azimuth Distance (km) Brightness Sun altitude
Exits shadow 04:37:52 26° 274° (W) 1,846 4.4 -17.4°
Maximum altitude 04:40:50 40° 324° (NW) 1,468 4.2 -16.9°
Drops below altitude 10° 04:47:19 10° 33° (NNE) 2,949 6.5 -15.7°
Sets 04:50:19 0° 41° (NE) 3,968 7.4 -15.2°
